TimeCET,TemperatureF,Dew PointF,Humidity,Sea Level PressureIn,VisibilityMPH,Wind Direction,Wind SpeedMPH,Gust SpeedMPH,PrecipitationIn,Events,Conditions,WindDirDegrees,DateUTC
12:15 AM,42.8,39.2,87,30.33,6.2,Calm,Calm,-,N/A,,Mostly Cloudy,0,2012-11-07 23:15:00
12:45 AM,42.8,39.2,87,30.33,6.2,South,2.2,-,N/A,,Mostly Cloudy,190,2012-11-07 23:45:00
1:15 AM,44.6,39.2,81,30.33,6.2,South,4.5,-,N/A,,Mostly Cloudy,190,2012-11-08 00:15:00
1:45 AM,44.6,39.2,81,30.33,6.2,South,4.5,-,N/A,,Mostly Cloudy,190,2012-11-08 00:45:00
2:15 AM,44.6,39.2,81,30.33,6.2,South,4.5,-,N/A,,Mostly Cloudy,170,2012-11-08 01:15:00
2:45 AM,44.6,41.0,87,30.30,6.2,South,4.5,-,N/A,,Mostly Cloudy,180,2012-11-08 01:45:00
3:15 AM,44.6,39.2,81,30.30,4.3,SSW,4.5,-,N/A,,Mostly Cloudy,200,2012-11-08 02:15:00
3:45 AM,44.6,39.2,81,30.30,-9999.0,South,4.5,-,N/A,,Clear,190,2012-11-08 02:45:00
4:15 AM,42.8,37.4,81,30.30,-9999.0,South,6.7,-,N/A,,Clear,190,2012-11-08 03:15:00
4:45 AM,41.0,37.4,87,30.27,-9999.0,South,4.5,-,N/A,,Clear,190,2012-11-08 03:45:00
5:15 AM,41.0,37.4,87,30.30,-9999.0,South,2.2,-,N/A,,Clear,190,2012-11-08 04:15:00
5:45 AM,-9999,-9999,N/A,-9999,-9999.0,Variable,4.5,-,N/A,,Clear,0,2012-11-08 04:45:00
6:15 AM,37.4,35.6,93,30.27,-9999.0,South,2.2,-,N/A,,Clear,180,2012-11-08 05:15:00
6:45 AM,39.2,35.6,87,30.27,-9999.0,South,4.5,-,N/A,,Clear,170,2012-11-08 05:45:00
7:15 AM,39.2,35.6,87,30.27,-9999.0,South,6.7,-,N/A,,Clear,190,2012-11-08 06:15:00
7:45 AM,44.6,37.4,76,30.27,-9999.0,South,6.7,-,N/A,,Clear,190,2012-11-08 06:45:00
8:15 AM,46.4,37.4,71,30.27,-9999.0,SSW,8.9,-,N/A,,Clear,200,2012-11-08 07:15:00
8:45 AM,-9999,-9999,N/A,-9999,-9999.0,SSW,8.9,-,N/A,,Clear,200,2012-11-08 07:45:00
9:15 AM,50.0,37.4,62,30.24,-9999.0,SSW,11.2,-,N/A,,Clear,210,2012-11-08 08:15:00
9:45 AM,51.8,39.2,62,30.24,-9999.0,SSW,8.9,-,N/A,,Clear,210,2012-11-08 08:45:00
10:15 AM,53.6,37.4,54,30.24,6.2,SSW,11.2,-,N/A,,Smoke,210,2012-11-08 09:15:00
10:45 AM,55.4,39.2,54,30.24,-9999.0,SSW,11.2,-,N/A,,Clear,210,2012-11-08 09:45:00
11:15 AM,57.2,37.4,48,30.21,-9999.0,SSW,15.7,-,N/A,,Clear,210,2012-11-08 10:15:00
11:45 AM,-9999,-9999,N/A,-9999,-9999.0,SSW,8.9,-,N/A,,Clear,200,2012-11-08 10:45:00
12:15 PM,57.2,37.4,48,30.18,-9999.0,South,15.7,-,N/A,,Clear,190,2012-11-08 11:15:00
12:16 PM,57.2,37.4,48,30.18,-9999.0,SW,13.4,26.8,N/A,,Clear,220,2012-11-08 11:16:00
12:45 PM,57.2,39.2,51,30.18,-9999.0,SW,15.7,26.8,N/A,,Clear,220,2012-11-08 11:45:00
1:15 PM,57.2,39.2,51,30.15,-9999.0,South,15.7,-,N/A,,Clear,190,2012-11-08 12:15:00
1:45 PM,57.2,37.4,48,30.15,-9999.0,South,15.7,-,N/A,,Clear,190,2012-11-08 12:45:00
2:15 PM,57.2,35.6,44,30.15,-9999.0,SSW,13.4,-,N/A,,Clear,210,2012-11-08 13:15:00
2:45 PM,-9999,-9999,N/A,-9999,-9999.0,SSW,11.2,-,N/A,,Clear,200,2012-11-08 13:45:00
3:15 PM,53.6,39.2,58,30.12,-9999.0,South,6.7,-,N/A,,Clear,190,2012-11-08 14:15:00
3:45 PM,51.8,39.2,62,30.12,-9999.0,South,8.9,-,N/A,,Clear,180,2012-11-08 14:45:00
4:15 PM,50.0,39.2,66,30.12,-9999.0,South,4.5,-,N/A,,Clear,180,2012-11-08 15:15:00
4:45 PM,50.0,39.2,66,30.12,-9999.0,South,6.7,-,N/A,,Clear,180,2012-11-08 15:45:00
5:15 PM,50.0,37.4,62,30.12,-9999.0,SSE,8.9,-,N/A,,Clear,150,2012-11-08 16:15:00
5:45 PM,-9999,-9999,N/A,-9999,-9999.0,South,6.7,-,N/A,,Clear,170,2012-11-08 16:45:00
6:15 PM,46.4,37.4,71,30.09,-9999.0,South,6.7,-,N/A,,Clear,180,2012-11-08 17:15:00
6:45 PM,46.4,39.2,76,30.09,-9999.0,South,6.7,-,N/A,,Clear,180,2012-11-08 17:45:00
7:15 PM,46.4,39.2,76,30.06,-9999.0,South,6.7,-,N/A,,Clear,180,2012-11-08 18:15:00
7:45 PM,48.2,39.2,71,30.06,-9999.0,South,6.7,-,N/A,,Clear,180,2012-11-08 18:45:00
8:15 PM,48.2,39.2,71,30.06,-9999.0,South,6.7,-,N/A,,Clear,180,2012-11-08 19:15:00
8:45 PM,-9999,-9999,N/A,-9999,3.1,South,6.7,-,N/A,Rain,Rain,180,2012-11-08 19:45:00
9:15 PM,44.6,37.4,76,30.06,-9999.0,SSW,4.5,-,N/A,,Clear,200,2012-11-08 20:15:00
9:45 PM,46.4,37.4,71,30.06,-9999.0,South,4.5,-,N/A,,Clear,190,2012-11-08 20:45:00
10:15 PM,44.6,37.4,76,30.06,-9999.0,South,4.5,-,N/A,,Clear,190,2012-11-08 21:15:00
10:45 PM,44.6,39.2,81,30.06,-9999.0,SSW,4.5,-,N/A,,Clear,200,2012-11-08 21:45:00
11:15 PM,44.6,37.4,76,30.04,-9999.0,SSW,4.5,-,N/A,,Clear,210,2012-11-08 22:15:00
11:45 PM,-9999,-9999,N/A,-9999,3.1,North,-9999.0,-,N/A,Rain,Rain,0,2012-11-08 22:45:00